Weather Roundup
Issued by NWS Chicago, IL

Home | Current Version | Previous Version | Graphics & Text | Print | Product List | Glossary On
Versions: 1 2 3 4 5 6 7 8 9 10 11 12 13 14 15 16 17 18 19 20 21 22 23 24 25 26 27 28 29 30 31 32 33 34 35 36 37 38 39 40 41 42 43 44 45 46 47 48 49 50
000
NZUS59 KLOT 280812
HRRLOT

CHICAGO AREA WEATHER ROUNDUP
NATIONAL WEATHER SERVICE CHICAGO/ROMEOVILLE IL
300 AM CDT TUE JUL 28 2015

NOTE: "FAIR" INDICATES FEW OR NO CLOUDS BELOW 12,000 FEET WITH NO
SIGNIFICANT WEATHER AND/OR OBSTRUCTIONS TO VISIBILITY.

* THESE STATIONS ARE NOT UNDER NWS QUALITY CONTROL. THEY ALSO MAY NOT
  REPORT WEATHER SUCH AS PRECIPITATION OR FOG.

ILZ005-006-012>014-019>023-280900-
NORTHEAST ILLINOIS

CITY           SKY/WX    TMP DP  RH WIND       PRES   REMARKS
OHARE          PTCLDY    71  66  84 N6        29.99F
MIDWAY         PTCLDY    76  66  71 E5        29.99S
AURORA         PTCLDY    68  63  84 CALM      29.99F
LANSING*       PTCLDY    70  62  74 E5        29.99F
JOLIET*        PTCLDY    73  67  82 NE3       29.98F
WAUKEGAN       CLEAR     64  63  96 CALM      30.00F
DUPAGE AIRPORT PTCLDY    69  64  84 NE3       29.99F
WHEELING       PTCLDY    69  66  90 CALM      30.01F
KANKAKEE*      PTCLDY    69  67  92 CALM      29.98F
MORRIS*        PTCLDY    70  66  88 CALM      29.96S
LEWIS AIRPORT* PTCLDY    70  65  84 E6        29.99S
NORTHERLY IS     N/A     72  68  87 CALM        N/A
$$

WIZ051-052-058>065-066-070>072-280900-
SOUTHEAST WISCONSIN

CITY           SKY/WX    TMP DP  RH WIND       PRES   REMARKS
MILWAUKEE      PTCLDY    69  63  81 NW5       30.02F
KENOSHA*       CLEAR     61  60  97 N3        30.02F FOG
RACINE*        CLEAR     67  63  87 CALM      30.03F
BURLINGTON     CLEAR     58  58  99 CALM      30.02F FOG
WAUKESHA       CLEAR     63  61  94 CALM      30.04F
WEST BEND      PTCLDY    59  55  88 CALM      30.03F
$$

INZ001>003-010>013-019-020-280900-
NORTHWEST INDIANA

CITY           SKY/WX    TMP DP  RH WIND       PRES   REMARKS
GARY*          PTCLDY    66  65  97 CALM      30.00S
MICHIGAN CITY* NOT AVBL
RENSSELAER*    NOT AVBL
VALPARAISO     MOCLDY    67  62  84 NE6       30.01S
$$

LMZ740>746-280900-
SOUTHERN LAKE MICHIGAN

STATION/POSITION TIME  SKY/WX   TEMP WIND        PRES    VSBY
                                AIR  DIR/SP/G
                 (UTC)          (F)  (DEG/KT/KT) (MB)    (MI)
HARRISON CRIB    0700            74   90/  9/ 10   N/A
BURNHAM HARBOR   0800            72  360/  2/  5   N/A
CALUMET HARBOR   0700            74   50/  3/  4   N/A
BURNS HARBOR     0700            77  110/  9/ 14 1016.3R
MICHIGAN CITY    0700            74  100/  7/  8   N/A
$$

ABBREVIATIONS USED IN REMARKS
   TC - TEMPERATURE IN CELSIUS
  WCI - WIND CHILL INDEX
   HX - HEAT INDEX
  VSB - VISIBILITY
$$



USA.gov is the U.S. government's official web portal to all federal, state and local government web resources and services.